EW4941 Weather Reports


Display with metric or nautical units.
time (UTC)temp
F
wind
direction
speed
MPH
gust
MPH
rain 1hr
in
rain 24hr
in
rain mn
in
humidity
%
barometer
mb
20260508023111 46 0 5.0 14.0 0.00 0.22 0.06 49 1007.0
20260508022612 46 0 4.0 10.0 0.00 0.22 0.06 48 1006.9
20260508022111 46 0 3.0 6.0 0.00 0.22 0.06 48 1006.9
20260508021611 46 0 4.0 6.0 0.00 0.22 0.06 47 1006.9
20260508021344 47 0 4.0 9.0 0.00 0.23 0.06 48 1006.9
20260508020608 47 0 5.0 11.0 0.00 0.23 0.06 47 1006.9
20260508020108 47 0 8.0 13.0 0.00 0.23 0.06 47 1006.7
20260508015610 47 0 8.0 13.0 0.00 0.23 0.06 47 1006.6
20260508015341 47 0 7.0 13.0 0.00 0.24 0.06 47 1006.6
20260508014607 47 0 6.0 13.0 0.00 0.24 0.06 46 1006.5
20260508014107 47 0 5.0 12.0 0.00 0.25 0.06 47 1006.6
20260508013608 47 0 4.0 8.0 0.00 0.26 0.06 46 1006.7
20260508013107 47 0 4.0 10.0 0.00 0.26 0.06 45 1006.7
20260508012606 48 0 4.0 10.0 0.00 0.26 0.06 45 1006.6
20260508012108 48 0 5.0 10.0 0.00 0.26 0.06 44 1006.6
20260508011606 48 0 5.0 12.0 0.00 0.26 0.06 44 1006.4
20260508011107 48 0 5.0 12.0 0.00 0.26 0.06 44 1006.4
20260508010608 48 0 6.0 11.0 0.00 0.26 0.06 44 1006.3
20260508010108 48 0 6.0 13.0 0.00 0.26 0.06 45 1006.3
20260508005607 48 0 5.0 13.0 0.00 0.26 0.06 46 1006.3
20260508005108 48 0 3.0 8.0 0.00 0.26 0.06 45 1006.3
20260508004607 49 0 4.0 8.0 0.00 0.26 0.06 44 1006.2
20260508004107 49 0 4.0 9.0 0.00 0.26 0.06 44 1006.3
20260508003839 49 0 4.0 13.0 0.00 0.26 0.06 44 1006.2
20260508003107 50 0 4.0 13.0 0.00 0.26 0.06 44 1006.2
20260508002607 50 0 4.0 12.0 0.00 0.26 0.06 43 1006.1
20260508002105 50 0 4.0 12.0 0.00 0.26 0.06 44 1006.0
20260508001607 50 0 4.0 9.0 0.00 0.26 0.06 43 1005.9
20260508001104 50 0 5.0 9.0 0.00 0.26 0.06 43 1005.8
20260508000607 50 0 4.0 9.0 0.00 0.26 0.06 43 1005.7
20260508000104 51 0 4.0 10.0 0.00 0.26 0.06 43 1005.7
20260507235606 51 0 5.0 10.0 0.00 0.26 0.06 44 1005.6
20260507235105 51 0 4.0 9.0 0.00 0.26 0.06 42 1005.5
20260507234838 51 0 5.0 11.0 0.00 0.26 0.06 42 1005.5
20260507234106 52 0 5.0 11.0 0.00 0.26 0.06 42 1005.4
20260507233836 52 0 6.0 14.0 0.00 0.26 0.06 42 1005.3
20260507233104 52 0 6.0 14.0 0.00 0.26 0.06 41 1005.3
20260507232604 53 0 6.0 15.0 0.00 0.26 0.06 41 1005.3
20260507232335 53 0 6.0 15.0 0.00 0.26 0.06 41 1005.1
20260507231833 53 0 6.0 13.0 0.00 0.26 0.06 42 1005.0
20260507231104 53 0 7.0 13.0 0.00 0.26 0.06 41 1004.9
20260507230602 54 0 6.0 12.0 0.00 0.26 0.06 40 1004.8
20260507230333 54 0 7.0 15.0 0.00 0.26 0.06 40 1004.8
20260507225605 55 0 7.0 15.0 0.00 0.26 0.06 39 1004.7
20260507225103 55 0 6.0 13.0 0.00 0.26 0.06 38 1004.6
20260507224602 55 0 7.0 15.0 0.00 0.27 0.06 39 1004.6
20260507224103 55 0 7.0 15.0 0.00 0.27 0.06 38 1004.5
20260507223603 55 0 7.0 14.0 0.00 0.28 0.06 38 1004.5
20260507223108 56 0 5.0 10.0 0.00 0.32 0.06 37 1004.4
20260507223102 55 0 7.0 14.0 0.00 0.29 0.06 37 1004.5
20260507222103 56 0 5.0 11.0 0.00 0.32 0.06 37 1004.3
20260507221600 56 0 7.0 15.0 0.00 0.32 0.06 38 1004.3
20260507221056 56 0 7.0 15.0 0.00 0.32 0.06 36 1004.2
20260507220558 57 0 7.0 15.0 0.00 0.33 0.06 36 1004.2
20260507220327 57 0 9.0 21.0 0.00 0.33 0.06 37 1004.2
20260507215556 57 0 10.0 21.0 0.00 0.34 0.06 37 1004.1
20260507215054 57 0 10.0 16.0 0.00 0.34 0.06 36 1004.1
20260507214554 57 0 9.0 16.0 0.00 0.38 0.06 36 1004.1
20260507214055 58 0 8.0 15.0 0.00 0.46 0.06 37 1004.1
20260507213554 58 0 7.0 15.0 0.00 0.52 0.06 37 1004.0
20260507213054 58 0 8.0 14.0 0.00 0.54 0.06 38 1004.0
20260507212555 58 0 10.0 17.0 0.00 0.58 0.06 38 1003.9
20260507212055 58 0 9.0 17.0 0.00 0.60 0.06 37 1004.0
20260507211556 59 0 8.0 16.0 0.00 0.62 0.06 37 1003.8
20260507211054 59 0 8.0 17.0 0.00 0.64 0.06 40 1003.8
20260507210552 59 0 8.0 17.0 0.00 0.66 0.06 41 1003.8
20260507210050 59 0 8.0 20.0 0.00 0.69 0.06 39 1003.7
20260507205550 59 0 8.0 20.0 0.00 0.70 0.06 37 1003.6
20260507205051 58 0 8.0 14.0 0.00 0.70 0.06 39 1003.5
20260507204551 58 0 7.0 15.0 0.00 0.71 0.06 38 1003.5
20260507204049 58 0 8.0 18.0 0.00 0.72 0.06 37 1003.4
20260507203548 59 0 8.0 18.0 0.00 0.72 0.06 39 1003.4
20260507203048 60 0 8.0 18.0 0.00 0.73 0.06 34 1003.4
20260507202549 60 0 9.0 18.0 0.00 0.74 0.06 35 1003.4
20260507202048 60 0 9.0 15.0 0.00 0.74 0.06 36 1003.4
20260507201550 60 0 9.0 15.0 0.00 0.74 0.06 36 1003.4
20260507201048 60 0 9.0 19.0 0.00 0.75 0.06 35 1003.4
20260507200549 61 0 9.0 19.0 0.00 0.75 0.06 34 1003.4
20260507200048 61 0 9.0 21.0 0.00 0.76 0.06 35 1003.3
20260507195546 61 0 9.0 21.0 0.00 0.76 0.06 34 1003.2
20260507195316 60 0 9.0 17.0 0.00 0.76 0.06 36 1003.3
20260507194552 60 0 7.0 14.0 0.00 0.76 0.06 43 1003.3
20260507194547 60 0 8.0 17.0 0.00 0.76 0.06 38 1003.4
20260507193546 59 0 7.0 12.0 0.00 0.77 0.06 40 1003.4
20260507193047 60 0 6.0 17.0 0.00 0.77 0.06 38 1003.4
20260507192543 60 0 8.0 17.0 0.00 0.78 0.06 37 1003.4
20260507192044 61 0 8.0 17.0 0.00 0.78 0.06 37 1003.5
20260507191544 61 0 7.0 16.0 0.00 0.78 0.06 38 1003.5
20260507191044 61 0 8.0 15.0 0.00 0.78 0.06 43 1003.6
20260507190544 61 0 8.0 16.0 0.00 0.79 0.06 39 1003.6
20260507190044 61 0 7.0 16.0 0.00 0.80 0.06 40 1003.5
20260507185544 60 0 8.0 14.0 0.00 0.80 0.06 41 1003.6
20260507185044 60 0 8.0 14.0 0.00 0.83 0.06 43 1003.7
20260507184544 60 0 10.0 18.0 0.00 0.85 0.06 42 1003.7
20260507184045 59 0 11.0 19.0 0.00 0.86 0.06 46 1003.7
20260507183815 60 0 10.0 19.0 0.00 0.87 0.06 45 1003.8
20260507183045 60 0 8.0 16.0 0.00 0.88 0.06 49 1003.6
20260507182814 59 0 7.0 16.0 0.00 0.88 0.06 49 1003.7
20260507182045 58 0 7.0 16.0 0.00 0.88 0.06 53 1003.7
20260507181544 58 0 8.0 16.0 0.00 0.89 0.06 51 1003.7
20260507181044 58 0 9.0 16.0 0.00 0.89 0.06 52 1003.7
20260507180544 58 0 10.0 16.0 0.00 0.89 0.06 51 1003.8
20260507180043 58 0 9.0 15.0 0.00 0.89 0.06 51 1003.8
20260507175545 59 0 7.0 15.0 0.00 0.89 0.06 51 1003.8
20260507175045 58 0 5.0 12.0 0.00 0.89 0.06 54 1003.9
20260507174544 58 0 5.0 12.0 0.00 0.89 0.06 54 1003.8
20260507174041 58 0 7.0 13.0 0.00 0.89 0.06 55 1003.9
20260507173814 58 0 8.0 14.0 0.00 0.89 0.06 53 1003.9
20260507173312 59 0 8.0 14.0 0.00 0.89 0.06 51 1003.9
20260507172543 60 0 8.0 16.0 0.00 0.89 0.06 50 1003.8
20260507172043 60 0 8.0 16.0 0.00 0.89 0.06 48 1003.8
20260507171543 60 0 8.0 19.0 0.00 0.89 0.06 50 1003.9
20260507171048 59 0 6.0 13.0 0.00 0.89 0.06 52 1003.9
20260507171043 60 0 7.0 19.0 0.00 0.89 0.06 52 1003.9
20260507170315 59 0 6.0 13.0 0.00 0.89 0.06 52 1004.0
20260507165544 58 0 4.0 9.0 0.00 0.89 0.06 52 1004.1
20260507165042 58 0 5.0 12.0 0.00 0.89 0.06 48 1004.2
20260507164541 58 0 7.0 15.0 0.00 0.89 0.06 52 1004.2
20260507164043 58 0 8.0 15.0 0.00 0.89 0.06 50 1004.4
20260507163542 59 0 5.0 15.0 0.00 0.89 0.06 50 1004.2
20260507163043 59 0 5.0 10.0 0.00 0.89 0.06 52 1004.3
20260507162542 59 0 4.0 10.0 0.00 0.89 0.06 49 1004.3
20260507162042 59 0 4.0 10.0 0.00 0.89 0.06 50 1004.3
20260507161541 59 0 5.0 12.0 0.00 0.89 0.06 49 1004.4
20260507161041 59 0 6.0 12.0 0.00 0.89 0.06 51 1004.5
20260507160542 59 0 5.0 13.0 0.00 0.89 0.06 49 1004.4
20260507160314 59 0 4.0 13.0 0.00 0.89 0.06 53 1004.5
20260507155547 58 0 3.0 8.0 0.00 0.89 0.06 56 1004.7
20260507155542 59 0 3.0 9.0 0.00 0.89 0.06 52 1004.6
20260507154814 58 0 4.0 8.0 0.00 0.89 0.06 51 1004.8
20260507154041 59 0 5.0 10.0 0.00 0.89 0.06 53 1004.7
20260507153544 59 0 6.0 11.0 0.00 0.89 0.06 56 1004.8
20260507153313 59 0 5.0 11.0 0.00 0.89 0.06 57 1004.8
20260507152542 59 0 4.0 10.0 0.00 0.89 0.06 54 1004.9
20260507152041 59 0 4.0 10.0 0.00 0.89 0.06 56 1004.8
20260507151544 58 0 4.0 10.0 0.00 0.89 0.06 57 1004.8
20260507151039 58 0 4.0 10.0 0.00 0.89 0.06 55 1004.9
20260507150539 59 0 5.0 10.0 0.00 0.89 0.06 54 1004.9
20260507150037 59 0 5.0 10.0 0.00 0.89 0.06 54 1005.0
20260507145542 58 0 5.0 12.0 0.00 0.89 0.06 55 1004.9
20260507145035 58 0 4.0 12.0 0.00 0.89 0.06 55 1005.0
20260507144534 58 0 5.0 11.0 0.00 0.89 0.06 59 1005.1
20260507144306 57 0 5.0 11.0 0.00 0.89 0.06 59 1005.1
20260507143531 57 0 4.0 11.0 0.00 0.89 0.06 57 1005.2
20260507143032 57 0 6.0 11.0 0.00 0.89 0.06 61 1005.2
20260507142529 57 0 6.0 14.0 0.00 0.89 0.06 59 1005.3
20260507142300 57 0 6.0 14.0 0.00 0.89 0.06 58 1005.3
20260507141531 57 0 5.0 11.0 0.00 0.89 0.06 58 1005.5
20260507141030 56 0 5.0 12.0 0.00 0.89 0.06 62 1005.5
20260507140531 56 0 7.0 17.0 0.00 0.89 0.06 59 1005.5
20260507140034 56 0 7.0 15.0 0.00 0.89 0.06 60 1005.6
20260507140030 56 0 8.0 17.0 0.00 0.89 0.06 59 1005.5
20260507135027 55 0 6.0 12.0 0.00 0.89 0.06 62 1005.5
20260507134528 55 0 7.0 13.0 0.00 0.89 0.06 61 1005.6
20260507134027 55 0 7.0 13.0 0.00 0.89 0.06 62 1005.7
20260507133528 55 0 7.0 14.0 0.00 0.89 0.06 64 1005.7
20260507133028 55 0 6.0 14.0 0.00 0.89 0.06 64 1005.7
20260507132527 54 0 5.0 14.0 0.00 0.89 0.06 66 1005.7
20260507132026 54 0 5.0 14.0 0.00 0.89 0.06 64 1005.7
20260507131524 54 0 4.0 10.0 0.00 0.89 0.06 67 1005.7
20260507131026 53 0 4.0 10.0 0.00 0.89 0.06 67 1005.6
20260507130523 53 0 4.0 9.0 0.00 0.89 0.06 70 1005.7
20260507130024 53 0 5.0 13.0 0.00 0.89 0.06 70 1005.7
20260507125524 52 0 6.0 13.0 0.00 0.89 0.06 67 1005.8
20260507125028 52 0 6.0 12.0 0.00 0.89 0.06 71 1005.9
20260507125023 52 0 5.0 10.0 0.00 0.89 0.06 71 1005.8
20260507124024 51 0 5.0 12.0 0.00 0.89 0.06 70 1005.9
20260507123523 51 0 5.0 12.0 0.00 0.89 0.06 72 1006.0
20260507123024 51 0 6.0 11.0 0.00 0.89 0.06 72 1005.9
20260507122522 51 0 5.0 14.0 0.00 0.89 0.06 72 1006.0
20260507122022 51 0 5.0 14.0 0.00 0.89 0.06 73 1005.9
20260507121521 51 0 5.0 11.0 0.00 0.89 0.06 74 1006.0
20260507121022 50 0 5.0 11.0 0.00 0.89 0.06 72 1006.0
20260507120522 50 0 5.0 13.0 0.00 0.89 0.06 74 1005.9
20260507120021 50 0 7.0 14.0 0.00 0.89 0.06 73 1005.9
20260507115523 49 0 7.0 14.0 0.00 0.89 0.06 74 1006.0
20260507115021 49 0 7.0 13.0 0.00 0.89 0.06 74 1006.0
20260507114754 49 0 6.0 13.0 0.00 0.89 0.06 74 1006.1
20260507114022 49 0 6.0 11.0 0.00 0.89 0.06 74 1006.3
20260507113521 49 0 5.0 11.0 0.00 0.89 0.06 75 1006.4
20260507113023 49 0 4.0 9.0 0.00 0.89 0.06 76 1006.3
20260507112523 48 0 4.0 10.0 0.00 0.89 0.06 78 1006.3
20260507112020 48 0 5.0 10.0 0.00 0.89 0.06 77 1006.3
20260507111752 48 0 4.0 10.0 0.00 0.89 0.06 79 1006.1
20260507111020 47 0 3.0 5.0 0.00 0.89 0.06 80 1006.3
20260507110519 47 0 3.0 5.0 0.00 0.89 0.06 82 1006.6
20260507110020 46 0 2.0 5.0 0.00 0.89 0.06 84 1006.6
20260507105520 46 0 2.0 5.0 0.00 0.89 0.06 85 1006.5
20260507105017 45 0 3.0 6.0 0.00 0.89 0.06 84 1006.4
20260507104517 45 0 2.0 6.0 0.00 0.89 0.06 85 1006.3
20260507104018 45 0 1.0 5.0 0.00 0.89 0.06 87 1006.3
20260507103517 44 0 1.0 3.0 0.00 0.89 0.06 88 1006.2
20260507103017 44 0 0.0 2.0 0.00 0.89 0.06 89 1006.3
20260507102751 44 0 1.0 4.0 0.00 0.89 0.06 90 1006.4
20260507102016 43 0 1.0 4.0 0.00 0.89 0.06 89 1006.3
20260507101514 43 0 2.0 5.0 0.00 0.89 0.06 89 1006.3
20260507101014 42 0 2.0 5.0 0.00 0.89 0.06 89 1006.3
20260507100512 43 0 0.0 3.0 0.00 0.89 0.06 90 1006.1
20260507100012 43 0 0.0 2.0 0.00 0.89 0.06 89 1006.1
20260507095509 43 0 0.0 4.0 0.00 0.89 0.06 90 1005.9
20260507095009 43 0 0.0 4.0 0.00 0.89 0.06 90 1005.8
20260507094508 43 0 0.0 0.0 0.00 0.89 0.06 90 1005.4
20260507094007 43 0 0.0 0.0 0.00 0.89 0.06 90 1005.5
20260507093507 43 0 0.0 0.0 0.00 0.89 0.06 90 1005.8
20260507093004 43 0 0.0 0.0 0.00 0.89 0.06 90 1005.8
20260507092506 43 0 0.0 0.0 0.00 0.89 0.06 89 1005.9
20260507092237 44 0 0.0 3.0 0.00 0.89 0.06 89 1005.8
20260507091733 44 0 1.0 3.0 0.00 0.89 0.06 89 1005.9
20260507091004 44 0 2.0 4.0 0.00 0.89 0.06 88 1005.7
20260507090735 44 0 2.0 4.0 0.00 0.89 0.06 88 1005.7
20260507090006 44 0 3.0 6.0 0.00 0.89 0.06 88 1005.9
20260507085504 44 0 3.0 9.0 0.00 0.89 0.06 88 1006.1
20260507085003 44 0 3.0 9.0 0.00 0.89 0.06 88 1006.1
20260507084502 44 0 3.0 6.0 0.00 0.89 0.06 88 1006.0
20260507084233 44 0 3.0 6.0 0.00 0.89 0.06 88 1006.0
20260507083502 44 0 3.0 5.0 0.00 0.89 0.06 88 1006.0
20260507083001 44 0 3.0 8.0 0.00 0.89 0.06 87 1005.9
20260507082500 44 0 3.0 8.0 0.00 0.89 0.06 87 1005.7
20260507082002 45 0 3.0 8.0 0.00 0.89 0.06 87 1005.6
20260507081500 45 0 4.0 8.0 0.00 0.89 0.06 87 1005.4
20260507081001 45 0 5.0 12.0 0.00 0.89 0.06 87 1005.5
20260507080500 45 0 5.0 12.0 0.00 0.89 0.06 87 1005.4
20260507080001 45 0 5.0 12.0 0.00 0.89 0.06 87 1005.5
20260507075500 45 0 7.0 12.0 0.00 0.89 0.06 88 1005.7
20260507074956 45 0 6.0 11.0 0.00 0.89 0.06 88 1005.8
20260507074457 45 0 4.0 11.0 0.00 0.89 0.06 88 1005.7
20260507073956 45 0 4.0 10.0 0.00 0.89 0.06 89 1005.7
20260507073455 45 0 5.0 10.0 0.00 0.89 0.06 89 1005.6
20260507072955 46 0 4.0 9.0 0.00 0.89 0.06 90 1005.9
20260507072454 46 0 3.0 8.0 0.00 0.89 0.06 90 1005.6
20260507071956 46 0 3.0 8.0 0.00 0.89 0.06 91 1005.7
20260507071454 46 0 3.0 8.0 0.00 0.89 0.06 91 1005.8
20260507070955 46 0 3.0 6.0 0.00 0.89 0.06 91 1005.2
20260507070725 46 0 3.0 9.0 0.00 0.89 0.06 92 1005.2
20260507070000 46 0 3.0 9.0 0.00 0.89 0.06 92 1005.6
20260507065954 46 0 3.0 9.0 0.00 0.89 0.06 92 1005.2
20260507064956 46 0 2.0 9.0 0.00 0.89 0.06 92 1005.3
20260507064455 46 0 1.0 5.0 0.00 0.89 0.06 92 1005.1
20260507063954 46 0 0.0 2.0 0.00 0.89 0.06 92 1005.0
20260507063453 46 0 1.0 4.0 0.00 0.89 0.06 92 1004.9
20260507062952 46 0 2.0 5.0 0.00 0.89 0.06 92 1004.9
20260507062725 47 0 3.0 6.0 0.00 0.89 0.06 92 1004.8
20260507061952 47 0 4.0 9.0 0.00 0.89 0.06 92 1004.8
20260507061450 47 0 4.0 9.0 0.00 0.89 0.06 92 1004.8
20260507060950 47 0 3.0 5.0 0.00 0.89 0.06 93 1004.8
20260507060451 47 0 3.0 5.0 0.00 0.89 0.06 93 1004.7
20260507055948 47 0 3.0 8.0 0.00 0.89 0.06 93 1004.8
20260507055449 47 0 3.0 8.0 0.01 0.89 0.06 93 1004.8
20260507054948 47 0 3.0 6.0 0.02 0.89 0.06 93 1004.8
20260507054448 47 0 2.0 5.0 0.02 0.89 0.06 93 1004.6
20260507053946 47 0 2.0 5.0 0.02 0.89 0.06 93 1004.2
20260507053447 47 0 3.0 9.0 0.02 0.89 0.06 93 1004.3
20260507052946 47 0 4.0 9.0 0.03 0.89 0.06 93 1004.3
20260507052716 47 0 4.0 10.0 0.04 0.89 0.06 93 1004.6
20260507051946 47 0 4.0 10.0 0.06 0.89 0.06 93 1004.8
20260507051446 47 0 4.0 11.0 0.06 0.89 0.06 93 1004.7
20260507050944 47 0 5.0 11.0 0.06 0.89 0.06 93 1004.8
20260507050445 48 0 4.0 10.0 0.06 0.89 0.06 93 1004.9
20260507045944 48 0 4.0 9.0 0.06 0.89 0.06 93 1004.8
20260507045444 48 0 4.0 9.0 0.05 0.87 0.04 93 1004.9
20260507045217 48 0 5.0 8.0 0.06 0.87 0.04 93 1005.1
20260507044444 48 0 4.0 8.0 0.06 0.87 0.04 93 1005.1
20260507043944 48 0 4.0 8.0 0.08 0.87 0.04 94 1004.9
20260507043444 49 0 5.0 9.0 0.09 0.87 0.04 94 1005.0
20260507043214 49 0 4.0 9.0 0.09 0.86 0.04 94 1004.8
20260507042445 49 0 4.0 8.0 0.10 0.85 0.02 94 1005.0
20260507041943 49 0 5.0 8.0 0.09 0.83 0.00 94 1005.2
20260507041444 49 0 4.0 9.0 0.10 0.83 0.00 94 1005.2
20260507040945 49 0 4.0 9.0 0.10 0.83 0.00 95 1004.8
20260507040447 50 0 4.0 10.0 0.13 0.83 0.83 94 1004.7
20260507040442 49 0 4.0 10.0 0.12 0.83 0.00 95 1004.8
20260507035713 50 0 5.0 9.0 0.14 0.82 0.82 94 1004.7
20260507034941 50 0 5.0 9.0 0.13 0.81 0.81 95 1004.7
20260507034441 50 0 5.0 10.0 0.14 0.81 0.81 95 1004.6
20260507033943 51 0 5.0 10.0 0.12 0.79 0.80 95 1004.6
20260507033441 51 0 5.0 10.0 0.11 0.78 0.78 95 1004.7
20260507032941 52 0 5.0 10.0 0.10 0.77 0.77 95 1004.5
20260507032442 52 0 4.0 10.0 0.08 0.75 0.75 95 1004.5
20260507031941 52 0 4.0 9.0 0.07 0.74 0.74 95 1004.3
20260507031442 53 0 3.0 6.0 0.06 0.73 0.74 95 1004.1
20260507031213 53 0 2.0 6.0 0.07 0.73 0.73 95 1004.0
20260507030713 53 0 2.0 4.0 0.05 0.71 0.72 95 1004.1
20260507025941 53 0 2.0 4.0 0.04 0.70 0.70 95 1004.2
20260507025441 53 0 2.0 4.0 0.02 0.68 0.68 95 1004.1
20260507024942 53 0 2.0 4.0 0.03 0.68 0.68 95 1003.8
20260507024441 53 0 2.0 4.0 0.03 0.67 0.67 95 1003.7
20260507023942 54 0 3.0 5.0 0.03 0.67 0.67 95 1003.8